Location: Amsterdam
(30.7274°N, 84.4357°W)
Time: 02:40:00
(UTC+00:00)

Transit 2A Rocket - Pass Details

Date: 17 February 2026
Orbit: 583 x 900 km, 66.7° (Epoch: 8 March)

Event Time Altitude Azimuth Distance (km) Brightness Sun altitude
Rises 22:43:00 0° 252° (WSW) 3,473 11.0 8.3°
Reaches altitude 10° 22:46:41 10° 275° (W) 2,563 9.2 7.6°
Maximum altitude 22:49:59 15° 309° (NW) 2,230 8.0 6.9°
Drops below altitude 10° 22:53:19 10° 343° (NNW) 2,573 7.8 6.2°
Sets 22:57:03 0° 6° (N) 3,496 8.2 5.5°
